Regional Weather Roundup
Issued by NWS

Home | Current Version | Previous Version | Text Only | Print | Product List | Glossary Off
Versions: 1 2 3 4 5 6 7 8 9 10 11 12 13 14 15 16 17 18 19 20 21 22 23 24 25 26 27

000
ASUS45 KBOU 241407
RWRCO

WEATHER ROUNDUP FOR COLORADO
NATIONAL WEATHER SERVICE DENVER/BOULDER CO
800 AM MDT FRI OCT 24 2014

NOTE: "FAIR" INDICATES FEW OR NO CLOUDS BELOW 12000 FEET WITH NO
SIGNIFICANT WEATHER AND/OR OBSTRUCTIONS TO VISIBILITY.

COZ001>005-013-030-031-241500-
...NORTHWEST COLORADO...

CITY           SKY/WX    TMP DP  RH WIND       PRES   REMARKS
CRAIG          CLEAR     28  25  88 CALM      30.31R
HAYDEN         CLEAR     37  27  65 SE10      30.32R
MEEKER         CLEAR     35  30  82 CALM      30.33R
MOUNT WERNER   NOT AVBL
STEAMBOAT SPGS CLEAR     32  28  85 CALM      30.34R
WALDEN         MOCLDY    45  23  42 S14       30.35R
$$

COZ006>008-011-241500-
...WEST CENTRAL VALLEYS...

CITY           SKY/WX    TMP DP  RH WIND       PRES   REMARKS
GRAND JUNCTION CLEAR     41  35  79 SE6       30.28R
MONTROSE       CLEAR     40  29  64 S9        30.36R
EAGLE          PTCLDY    30  30 100 CALM      30.41R
RIFLE          CLEAR     36  32  85 CALM      30.34R
DELTA          CLEAR     45  33  64 E6        30.34R
NUCLA          CLEAR     39  28  65 SE6       30.38R
$$

COZ017>023-064>068-241500-
...SOUTHWEST COLORADO...

CITY           SKY/WX    TMP DP  RH WIND       PRES   REMARKS
DURANGO        PTCLDY    34  31  88 NE3       30.39R
CORTEZ         CLEAR     33  28  81 NE7       30.36R WCI  27
PAGOSA SPRINGS PTCLDY    34  34  97 CALM      30.43R
TELLURIDE      CLEAR     41  19  41 SE5       30.51R
WOLF CREEK PAS CLEAR     41   7  24 S5          N/A
$$

COZ009-010-012-014-032>034-037-058>063-241500-
...CENTRAL COLORADO...

CITY           SKY/WX    TMP DP  RH WIND       PRES   REMARKS
ASPEN          CLEAR     33  23  66 S5        30.41R WCI  29
BUENA VISTA    PTCLDY    36  24  61 CALM      30.42R
COPPER MTN     PTCLDY    41   9  26 S15       30.61R
BERTHOUD PASS  FAIR      34  32  93 W24G41    30.60R WCI  21
COTTONWOOD PAS PTCLDY    48  10  21 N6        30.49R
GUNNISON       CLEAR     25  19  80 CALM      30.52R
KREMMLING      CLEAR     28  25  86 CALM        N/A
LEADVILLE      PTCLDY    30  16  56 CALM      30.50R
MONARCH PASS   PTCLDY    34  21  60 W31       30.69S WCI  20
SALIDA         PTCLDY    44  25  47 NW15G21   30.46R
SUNLIGHT       CLEAR     41  27  56 CALM      30.55R
WILKERSON PASS NOT AVBL
$$

COZ069>075-241500-
...SAN LUIS VALLEY/SANGRE DE CRISTO MOUNTAINS...

CITY           SKY/WX    TMP DP  RH WIND       PRES   REMARKS
ALAMOSA        MOCLDY    30  24  78 CALM      30.42R
LA VETA PASS   PTCLDY    41  28  60 S8G22     30.48R
SAGUACHE       PTCLDY    37  27  65 N9        30.43R
$$

COZ035-036-038>040-241500-
...NORTHERN COLORADO FRONT RANGE...

CITY           SKY/WX    TMP DP  RH WIND       PRES   REMARKS
DENVER INTL AP CLOUDY    59  26  28 SW9       30.17R
DMNS CITY PARK   N/A     56  29  35 S6        30.18R
AURORA         MOCLDY    56  27  33 S9        30.20R
FRONT RANGE AP NOT AVBL
ERIE MUNI ARPT CLOUDY    62  25  25 W6        30.15R
BOULDER MUN AP CLOUDY    61  28  29 SW14      30.16R
CENTENNIAL     CLOUDY    56  27  32 S6        30.20R
BROOMFIELD     MOCLDY    66  21  18 W18       30.18S
FORT COLLINS   CLOUDY    46  34  61 N6        30.17R
LONGMONT       CLOUDY    49  38  66 CALM      30.17R
$$

COZ041-046-047-076>085-087-088-241500-
...PIKES PEAK/PALMER DIVIDE AND SOUTHERN FOOTHILLS...

CITY           SKY/WX    TMP DP  RH WIND       PRES   REMARKS
COLO. SPRINGS  CLOUDY    57  25  29 NW3       30.23R
A. F. ACADEMY  CLOUDY    54  21  27 VRB6      30.26R
ELLICOTT       NOT AVBL
FALCON         CLOUDY    57  20  23 NW10      30.28R
FORT CARSON    CLOUDY    56  29  35 NW7       30.20R
LIMON          PTCLDY    44  35  70 N3        30.19R
MONUMENT HILL  CLOUDY    50  27  40 S6        30.27R
TRINIDAD       PTCLDY    48  32  53 W12       30.23R
$$

COZ042>045-048>051-090-091-241500-
...NORTHEAST COLORADO...

CITY           SKY/WX    TMP DP  RH WIND       PRES   REMARKS
GREELEY ARPT   CLOUDY    45  34  65 NW5       30.15R
AKRON          MOCLDY    55  33  43 W6        30.12R
BURLINGTON     CLEAR     50  38  63 W10       30.11R
WRAY           MOCLDY    48  37  66 SW7       30.06R
STERLING       MOCLDY    48  41  76 S5        30.09R
HOLYOKE        NOT AVBL
FORT MORGAN    MOCLDY    50  35  56 W8        30.13R
$$

COZ086-089-092>099-241500-
...SOUTHEAST COLORADO...

CITY           SKY/WX    TMP DP  RH WIND       PRES   REMARKS
PUEBLO         MOCLDY    45  35  68 SW6       30.17R
LA JUNTA       CLEAR     50  35  56 W10       30.15R
LAMAR          CLEAR     46  40  79 CALM      30.11R
SPRINGFIELD      N/A     55  41  59 NW10      30.14R
$$



USA.gov is the U.S. government's official web portal to all federal, state and local government web resources and services.